User: anonymous   Login
Location: 相模原市立博物館
(35.5593°N, 139.3931°E)
Time: 06:29:50
(UTC+09:00)
Language:

RS-15 - Orbit

View from above orbital plane
View from above orbital plane
View from above satellite
View from above satellite

Ground track
Ground track

The orbit data is extracted from the following two-line orbital elements,

1 23439U 94085A   22021.52604912 -.00000037  00000-0  15882-3 0  9991
2 23439  64.8183  23.2585 0166823 297.5940  60.8128 11.27571294114921
Epoch (UTC): 21 January 2022 12:37:30
Eccentricity: 0.0166823
inclination: 64.8183°
perigee height: 1882 km
apogee height: 2162 km
right ascension of ascending node: 23.2585°
argument of perigee: 297.5940°
revolutions per day: 11.27571294
mean anomaly at epoch: 60.8128°
orbit number at epoch: 11492

The dashed part of the orbit path shows where the satellite is in the earth's shadow,  

DLR